Regional Weather Roundup
Issued by NWS

Home | Current Version | Previous Version | Graphics & Text | Print | Product List | Glossary On
Versions: 1 2 3 4 5 6 7 8 9 10 11 12 13 14 15 16 17 18 19 20 21 22 23 24 25 26 27 28 29 30 31 32 33 34 35 36 37 38 39 40 41 42 43 44 45 46 47 48 49 50
000
ASUS45 KBOU 011207
RWRCO

WEATHER ROUNDUP FOR COLORADO
NATIONAL WEATHER SERVICE DENVER/BOULDER CO
600 AM MDT MON SEP 01 2014

NOTE: "FAIR" INDICATES FEW OR NO CLOUDS BELOW 12000 FEET WITH NO
SIGNIFICANT WEATHER AND/OR OBSTRUCTIONS TO VISIBILITY.

COZ001>005-013-030-031-011300-
...NORTHWEST COLORADO...

CITY           SKY/WX    TMP DP  RH WIND       PRES   REMARKS
CRAIG          CLEAR     41  38  89 CALM      30.14R
HAYDEN         CLEAR     43  36  75 E10       30.14S
MEEKER         CLEAR     43  37  79 E6        30.15S
MOUNT WERNER   NOT AVBL
STEAMBOAT SPGS CLEAR     38  38  97 CALM      30.16S
WALDEN         PTCLDY    37  32  81 S7        30.18S
$$

COZ006>008-011-011300-
...WEST CENTRAL VALLEYS...

CITY           SKY/WX    TMP DP  RH WIND       PRES   REMARKS
GRAND JUNCTION CLEAR     50  41  71 CALM      30.03R
MONTROSE       CLEAR     53  37  54 SE9       30.12S
EAGLE          CLEAR     43  39  87 CALM      30.19R
RIFLE          CLEAR     46  41  82 E3        30.10R
DELTA          CLEAR     55  37  52 NE6       30.09R
NUCLA          CLEAR     54  34  47 E5        30.13S
$$

COZ017>023-064>068-011300-
...SOUTHWEST COLORADO...

CITY           SKY/WX    TMP DP  RH WIND       PRES   REMARKS
DURANGO        CLEAR     44  35  70 E6        30.14R
CORTEZ         CLEAR     46  39  76 E5        30.11R
PAGOSA SPRINGS NOT AVBL
TELLURIDE      CLEAR     46  34  61 SE7       30.31R
WOLF CREEK PAS CLEAR     41  28  60 SW12      30.46R
$$

COZ009-010-012-014-032>034-037-058>063-011300-
...CENTRAL COLORADO...

CITY           SKY/WX    TMP DP  RH WIND       PRES   REMARKS
ASPEN          CLEAR     42  35  76 SW7       30.20F
BUENA VISTA    CLEAR     38  31  76 CALM      30.19S
COPPER MTN     CLEAR     41  21  45 SW10G23   30.40S
BERTHOUD PASS  FOG       32  30  93 NW22G29   30.39S VSB 1   WCI  19
COTTONWOOD PAS CLEAR     52  28  40 NE3       30.29R
GUNNISON       CLEAR     37  32  81 CALM      30.25R
KREMMLING      PTCLDY    34  32  93 CALM      30.22S
LEADVILLE      CLEAR     42  30  62 NE8       30.29S
MONARCH PASS   CLEAR     37  28  70 W35       30.50S
SALIDA         CLEAR     50  43  78 SE5       30.24R
SUNLIGHT       CLEAR     41  30  65 CALM      30.35R
WILKERSON PASS NOT AVBL
$$

COZ069>075-011300-
...SAN LUIS VALLEY/SANGRE DE CRISTO MOUNTAINS...

CITY           SKY/WX    TMP DP  RH WIND       PRES   REMARKS
ALAMOSA        PTCLDY    40  33  76 S5        30.18R
LA VETA PASS   NOT AVBL
SAGUACHE       NOT AVBL
$$

COZ035-036-038>040-011300-
...NORTHERN COLORADO FRONT RANGE...

CITY           SKY/WX    TMP DP  RH WIND       PRES   REMARKS
DENVER INTL AP PTCLDY    52  44  74 S5        30.07S
DMNS CITY PARK   N/A     52  47  83 SE2       30.07S
AURORA         PTCLDY    53  43  68 SE3       30.09R
FRONT RANGE AP NOT AVBL
ERIE MUNI ARPT CLEAR     47  46  95 CALM      30.07R
BOULDER MUN AP CLEAR     48  48 100 NE3       30.06S
CENTENNIAL     PTCLDY    50  44  80 CALM      30.09R
BROOMFIELD     CLEAR     54  46  76 SW3       30.09R
FORT COLLINS   CLEAR     52  45  76 S6        30.07S
LONGMONT       CLEAR     48  46  91 CALM      30.08S FOG
$$

COZ041-046-047-076>085-087-088-011300-
...PIKES PEAK/PALMER DIVIDE AND SOUTHERN FOOTHILLS...

CITY           SKY/WX    TMP DP  RH WIND       PRES   REMARKS
COLO. SPRINGS  PTCLDY    54  47  77 SE10      30.12R
A. F. ACADEMY  CLEAR     47  44  92 N5        30.12S
ELLICOTT       CLEAR     51  42  71 E9        30.11R
FALCON         CLEAR     49  47  93 SE3       30.15S
FORT CARSON    CLEAR     51  46  85 SE9       30.10R
LIMON          CLOUDY    54  49  83 W5        30.08R
MONUMENT HILL  PTCLDY    45  45 100 SE5       30.13S
TRINIDAD       CLEAR     51  46  83 W6        30.10R
$$

COZ042>045-048>051-090-091-011300-
...NORTHEAST COLORADO...

CITY           SKY/WX    TMP DP  RH WIND       PRES   REMARKS
GREELEY ARPT   MOCLDY    52  45  76 CALM      30.06S
AKRON          CLOUDY    52  48  86 W6        30.04R
BURLINGTON     CLEAR     51  47  86 NW8       30.02S
WRAY             N/A    N/A N/A N/A W6        30.00S
STERLING       CLEAR     52  50  93 S6        30.01R
HOLYOKE        PTCLDY    54  46  76 W3        30.00S
FORT MORGAN    PTCLDY    50  47  88 W6        30.04S
$$

COZ086-089-092>099-011300-
...SOUTHEAST COLORADO...

CITY           SKY/WX    TMP DP  RH WIND       PRES   REMARKS
PUEBLO         CLEAR     56  50  80 CALM      30.06R
LA JUNTA       CLEAR     56  49  77 CALM      30.04R
LAMAR          CLEAR     54  50  86 CALM      30.00R
SPRINGFIELD      N/A     54  51  90 NW10      30.02R
$$


USA.gov is the U.S. government's official web portal to all federal, state and local government web resources and services.